This demonstration page uses our WeatherBlox Daily Observations layout. Learn more.

Left ArrowRight Arrow

53.62937, 11.41316

Hourly Observations for May 26, 2022

Temp ( °F °C ) Dew Point ( °F °C ) Humidity (%) Winds ( mph kmh ) Pressure ( in mb ) Visibility ( mi km ) Precip ( " mm )
12:20 am 00:20 Mostly Cloudy 55 13 50 10 82 82 VRB 3 6 29.91 1013 30 48 N/A
12:50 am 00:50 Mostly Cloudy 55 13 48 9 77 77 VRB 3 6 29.88 1012 30 48 N/A
1:20 am 01:20 Mostly Cloudy 57 14 48 9 72 72 VRB 8 13 29.88 1012 30 48 N/A
1:50 am 01:50 Cloudy 55 13 50 10 82 82 WSW 10 17 29.88 1012 30 48 N/A
2:20 am 02:20 Mostly Cloudy 55 13 50 10 82 82 VRB 6 9 29.88 1012 30 48 N/A
2:50 am 02:50 Cloudy 55 13 50 10 82 82 VRB 6 9 29.88 1012 30 48 N/A
3:20 am 03:20 Cloudy 55 13 50 10 82 82 VRB 6 9 29.88 1012 30 48 N/A
3:50 am 03:50 Cloudy 57 14 50 10 77 77 WSW 8 13 29.88 1012 30 48 N/A
4:20 am 04:20 Mostly Cloudy 55 13 50 10 82 82 WSW 9 15 29.88 1012 30 48 N/A
4:50 am 04:50 Mostly Cloudy 57 14 52 11 82 82 VRB 6 9 29.88 1012 30 48 N/A
5:20 am 05:20 Cloudy 57 14 52 11 82 82 WSW 8 13 29.88 1012 30 48 N/A
5:50 am 05:50 Mostly Cloudy 57 14 52 11 82 82 VRB 8 13 29.88 1012 30 48 N/A
6:20 am 06:20 Mostly Cloudy 57 14 52 11 82 82 WSW 9 15 29.88 1012 30 48 N/A
6:50 am 06:50 Mostly Cloudy 57 14 52 11 82 82 WSW 8 13 29.88 1012 30 48 N/A
7:20 am 07:20 Partly Cloudy 57 14 50 10 77 77 WSW 12 19 29.91 1013 30 48 N/A
7:50 am 07:50 Partly Cloudy 59 15 50 10 72 72 W 12 19 29.91 1013 30 48 N/A
8:20 am 08:20 Partly Cloudy 59 15 50 10 72 72 W 13 20 29.91 1013 30 48 N/A
8:50 am 08:50 Partly Cloudy 59 15 50 10 72 72 W 12 19 29.91 1013 30 48 N/A
9:20 am 09:20 Mostly Cloudy 59 15 48 9 68 68 W 14 22 29.94 1014 30 48 N/A
9:50 am 09:50 Partly Cloudy 59 15 46 8 63 63 W 14 22 29.94 1014 30 48 N/A
10:20 am 10:20 Partly Cloudy 59 15 46 8 63 63 W 12 19 29.94 1014 30 48 N/A
10:50 am 10:50 Partly Cloudy 61 16 41 5 48 48 W 17 28 29.97 1015 30 48 N/A
11:20 am 11:20 Partly Cloudy 61 16 45 7 55 55 W 15 24 29.97 1015 30 48 N/A
11:50 am 11:50 Partly Cloudy 61 16 43 6 52 52 W 16 26 30.00 1016 30 48 N/A
12:20 pm 12:20 Partly Cloudy 61 16 43 6 52 52 W 16 26 30.00 1016 30 48 N/A
12:50 pm 12:50 Partly Cloudy 61 16 43 6 52 52 W 16 26 30.00 1016 30 48 N/A
1:20 pm 13:20 Partly Cloudy 63 17 43 6 49 49 W 16 26 30.00 1016 30 48 N/A
1:50 pm 13:50 Partly Cloudy 61 16 41 5 48 48 W 17 28 30.00 1016 30 48 N/A
2:20 pm 14:20 Partly Cloudy 64 18 45 7 49 49 W 16 26 30.00 1016 30 48 N/A
2:50 pm 14:50 Mostly Sunny 61 16 43 6 52 52 W 16 26 30.00 1016 7 11 N/A
3:20 pm 15:20 Mostly Sunny 61 16 43 6 52 52 W 17 28 30.00 1016 7 11 N/A
3:50 pm 15:50 Mostly Sunny 64 18 45 7 49 49 W 14 22 30.00 1016 30 48 N/A
4:20 pm 16:20 Mostly Sunny 63 17 45 7 52 52 W 20 31 30.00 1016 30 48 N/A
4:50 pm 16:50 Partly Cloudy 61 16 43 6 52 52 W 17 28 30.00 1016 30 48 N/A
5:20 pm 17:20 Cloudy 61 16 43 6 52 52 W 15 24 30.00 1016 30 48 N/A
5:50 pm 17:50 Mostly Cloudy 59 15 45 7 59 59 W 13 20 30.00 1016 30 48 N/A
6:20 pm 18:20 Cloudy with Light Rain 57 14 46 8 67 67 W 12 19 30.00 1016 30 48 N/A
6:50 pm 18:50 Mostly Cloudy with Light Rain 57 14 48 9 72 72 WSW 8 13 30.00 1016 30 48 N/A
7:20 pm 19:20 Mostly Sunny 57 14 48 9 72 72 WSW 7 11 30.00 1016 30 48 N/A
7:50 pm 19:50 Partly Cloudy 57 14 48 9 72 72 WSW 7 11 30.00 1016 30 48 N/A
8:20 pm 20:20 Mostly Cloudy with Light Showers 55 13 48 9 77 77 W 8 13 30.00 1016 30 48 N/A
8:50 pm 20:50 Mostly Cloudy with Drizzle 52 11 50 10 94 94 W 12 19 30.00 1016 3 4 N/A
9:20 pm 21:20 Mostly Cloudy with Drizzle 52 11 52 11 100 100 W 8 13 29.97 1015 4 7 N/A
9:50 pm 21:50 Mostly Cloudy 52 11 52 11 100 100 VRB 3 6 29.97 1015 4 6 N/A
10:20 pm 22:20 Mostly Cloudy 52 11 52 11 100 100 VRB 2 4 29.97 1015 30 48 N/A
10:50 pm 22:50 Mostly Cloudy 54 12 52 11 94 94 S 3 6 29.97 1015 30 48 N/A
11:20 pm 23:20 Mostly Cloudy 54 12 52 11 94 94 S 5 7 29.94 1014 30 48 N/A
11:50 pm 23:50 Mostly Cloudy 54 12 52 11 94 94 S 5 7 29.91 1013 30 48 N/A

Powered by AerisWeather